Torna al catalogo

STARLINK-35338

AttivoComunicazioniVLEO
NORAD 66250·PAYLOAD·🇺🇸 United States

Lanciato Oct 29, 2025 da Cape Canaveral Space Force Station

Loading…

Prossimi Passaggi (prossime 24 ore)

TLE

AggiornatoSource: CelesTrak SupGP

Epoca: Sep 14, 2026, 22:28 UTC

1 66250C 25245S   26257.93659722 -.00013839  00000+0 -44510-3 0  2571
2 66250  53.1580 123.3295 0001484  82.7475 242.6725 15.31703766    16

Traccia STARLINK-35338 in tempo reale con AllMySat

Download on the App Store